Location: Moy Burn
(57.3833°N, 4.0667°W)
Time: 10:13:32
(UTC+00:00)

COSMOS 2487 - Pass Details

Date: 08 August 2020
Orbit: 439 x 443 km, 74.7° (Epoch: 19 September)

Event Time Altitude Azimuth Distance (km) Brightness Sun altitude
Exits shadow 23:32:05 28° 119° (ESE) 874 3.5 -16.1°
Maximum altitude 23:32:29 28° 106° (ESE) 858 3.5 -16.1°
Drops below altitude 10° 23:35:28 10° 46° (NE) 1,568 5.6 -16.2°
Sets 23:37:44 0° 35° (NE) 2,444 6.8 -16.3°
